Flag for Germany Weather past 2 weeks in Brühl (Rhineland), North Rhine-Westphalia, Germany

Now
75 °F

Clear.


Feels Like: 77 °F
Forecast: 72 / 97 °F
Wind: 1 mph from Southeast

Location: Noervenich

Current Time: Jul 2, 2015 at 1:56:00 AM

Latest Report: Jul 2, 2015 at 1:00 AM


Visibility: 19 mi

Pressure: 30.04 "Hg

Humidity: 58%

Dew point: 59 °F

Location of Brühl (Rhineland)Location

Historic Weather in Brühl (Rhineland) — Graph

°F

Brühl (Rhineland) temperature yesterday

Maximum temperature yesterday: 92 °F (at 6:00 PM)
Minimum temperature yesterday: 60 °F (at 6:00 AM)
Average temperature yesterday: 77 °F

Past Weeks' High & Low Weather Summary

 TemperatureHumidityPressure
High92 °F (Jul 1, 6:00 PM)97% (Jun 18, 6:00 AM)30.32 "Hg (Jun 18, 6:00 AM)
Low44 °F (Jun 17, 6:00 AM)25% (Jun 30, 6:00 PM)29.70 "Hg (Jun 22, 9:00 PM)
Average63 °F68%30.08 "Hg
* Reported Midnight between Jun 16 and Jun 17 — Midnight between Jul 1 and Jul 2, Brühl (Rhineland), Weather by CustomWeather, © 2015

Note: Actual official high and low records may vary slightly from our data, if they occured in-between our weather recording intervals... More about our weather records

Advertising

Brühl (Rhineland) weather history for previous 24 hours

 ConditionsComfort  
Time TempWeatherWind HumidityBarometerVisibility
12:00 AM
Thu, Jul 2
77 °FClear.1 mph53%30.03 "Hg19 mi
10:00 PM
Wed, Jul 1
83 °FPassing clouds.1 mph43%30.01 "Hg19 mi
9:00 PM87 °FPassing clouds.3 mph36%29.99 "Hg19 mi
7:00 PM90 °FPassing clouds.3 mph32%29.98 "Hg19 mi
6:00 PM92 °FPassing clouds.5 mph31%29.98 "Hg19 mi
4:00 PM91 °FPartly sunny.5 mph35%30.00 "Hg19 mi
3:00 PM90 °FPartly sunny.5 mph36%30.00 "Hg19 mi
1:00 PM85 °FPartly sunny.5 mph37%30.04 "Hg22 mi
12:00 PM83 °FPassing clouds.5 mph41%30.05 "Hg22 mi
10:00 AM77 °FPassing clouds.3 mph49%30.07 "Hg22 mi
9:00 AM73 °FPassing clouds.3 mph57%30.08 "Hg22 mi
7:00 AM64 °FPassing clouds.1 mph69%30.09 "Hg22 mi
6:00 AM60 °FPassing clouds.1 mph80%30.10 "Hg22 mi
4:00 AM63 °FPassing clouds.2 mph72%30.09 "Hg22 mi
3:00 AM62 °FClear.1 mph74%30.09 "Hg22 mi
1:00 AM65 °FClear.1 mph67%30.10 "Hg22 mi
Weather by CustomWeather, © 2015

See weather overviewHow to use our weather pages